www.pogodaiklimat.ru

Погода и климат >> Архив погоды >> Великобритания >> Прествик


ПОГОДА в Прествике

  • Прогноз погоды в Прествике
  • Монитор погоды в Прествике

АРХИВ ПОГОДЫ в Прествике

Время (UTC), дата Ветер
(напр.,м/с)
 
Видим.   Явления Облачность Т
(С)
Тd
(С)
f
(%)
Тe
(С)
Тes
(С)
Комфортность P
(гПа)
Po
(гПа)
Тmin
(С)
Tmax
(С)
R
(мм)
R24
(мм)
S
(см)
19 18.08 З 7 35 км н/о +15.0 +11.7 81 +13 +13 998.2 995.0
20 18.08 ЮЗ 7 21 км в посл. час дождь н/о +14.4 +13.0 91 +12 +12 998.8 995.6
21 18.08 ЮЗ 7 35 км в посл. час дождь н/о +14.4 +12.2 87 +12 +12 999.5 996.3
22 18.08 ЮЗ 7 35 км н/о +14.2 +11.3 83 +12 +12 1000.0 996.8
23 18.08 ЮЗ 6 21 км в посл. час дождь н/о +13.7 +12.3 91 +11 +11 1000.4 997.2
00 19.08 ЮЗ 8 27 км в посл. час дождь н/о +14.0 +12.6 91 +11 +11 1000.7 997.5 0.2
01 19.08 З 9
{13}
29 км в посл. час дождь н/о +13.7 +12.2 91 +11 +11 1001.4 998.2
02 19.08 З 8 35 км в посл. час морось н/о +14.1 +10.9 81 +12 +12 1001.8 998.6
03 19.08 З 9 18 км н/о +14.2 +11.0 81 +12 +12 1002.3 999.1
04 19.08 З 9
{13}
17 км в посл. час дождь н/о +13.9 +11.1 83 +11 +11 1003.0 999.8
05 19.08 ЮЗ 7 15 км н/о +13.5 +11.7 89 +11 +11 1003.7 1000.4
06 19.08 З 7 16 км слаб. дождь н/о +13.7 +11.6 87 +11 +11 1004.1 1000.9 +13.5 0.2
07 19.08 ЮЗ 8 23 км в посл. час дождь н/о +13.7 +11.4 86 +11 +11 1004.7 1001.5
08 19.08 ЮЗ 7
{13}
27 км н/о +13.9 +10.8 82 +12 +12 1005.3 1002.1
09 19.08 ЮЗ 7 30 км в посл. час дождь н/о +14.3 +10.7 79 +12 +12 1005.8 1002.6
10 19.08 ЮЗ 8 35 км н/о +14.8 +10.3 74 +13 +13 1006.3 1003.1
11 19.08 ЮЗ 9
{13}
40 км н/о +15.5 +10.6 73 +13 +13 1006.8 1003.6
12 19.08 ЮЗ 9 24 км н/о +15.1 +10.4 73 +13 +13 1007.4 1004.2 0.2
13 19.08 ЮЗ 8 60 км н/о +15.8 +9.9 68 +14 +14 1007.9 1004.7
14 19.08 З 7 55 км в посл. час дождь н/о +15.1 +9.7 70 +13 +13 1008.5 1005.3
15 19.08 ЮЗ 9 55 км н/о +15.4 +9.8 69 +13 +13 1008.8 1005.6
16 19.08 ЮЗ 8 50 км в посл. час дождь н/о +14.9 +11.8 82 +13 +13 1009.0 1005.8
17 19.08 ЮЗ 7 45 км н/о +15.7 +9.8 68 +14 +14 1009.4 1006.2
18 19.08 ЮЗ 8 35 км н/о +14.8 +10.4 75 +13 +13 1009.7 1006.5 +16.4 0.4
19 19.08 ЮЗ 7 35 км в посл. час дождь н/о +14.4 +10.9 79 +12 +12 1009.9 1006.7
20 19.08 З 9 60 км в посл. час дождь н/о +13.9 +11.0 83 +11 +11 1010.3 1007.1
21 19.08 З 7 12 км слаб. морось н/о +13.3 +12.0 92 +11 +11 1010.9 1007.6
22 19.08 З 4 6000 м морось н/о +12.7 +11.4 92 +11 +11 1011.8 1008.5
23 19.08 З 5 70 км в посл. час дождь н/о +13.1 +11.2 88 +11 +11 1012.4 1009.2
00 20.08 З 5 >70 км в посл. час дождь н/о +13.2 +11.2 88 +11 +11 1012.8 1009.6 1
01 20.08 ЮЗ 5 11 км морось н/о +13.0 +11.5 91 +11 +11 1013.1 1009.8
02 20.08 З 4 >70 км в посл. час морось н/о +13.0 +11.8 92 +11 +11 1013.4 1010.1
03 20.08 З 4 >70 км н/о +13.2 +11.4 89 +11 +11 1013.9 1010.7
04 20.08 З 4 29 км слаб. морось н/о +13.0 +11.2 89 +11 +11 1014.4 1011.1
05 20.08 З 3 14 км морось н/о +13.0 +11.6 91 +12 +12 1014.8 1011.6
06 20.08 СЗ 2 40 км в посл. час дождь н/о +12.5 +11.4 93 +11 +11 1015.6 1012.3 +12.4 6
07 20.08 СЗ 1 55 км н/о +13.0 +11.5 91 +13 +13 1016.3 1013.0
08 20.08 З 5 45 км в посл. час морось н/о +13.4 +10.5 83 +12 +12 1017.0 1013.7
09 20.08 З 4 30 км в посл. час дождь н/о +14.0 +10.4 79 +13 +13 1017.6 1014.3
10 20.08 ЮЗ 6 19 км н/о +14.9 +11.5 80 +13 +13 1018.0 1014.8
11 20.08 ЮЗ 7 15 км н/о +15.2 +11.2 77 +13 +13 1018.5 1015.3
12 20.08 ЮЗ 7 12 км н/о +15.9 +11.1 73 +14 +14 1018.9 1015.7 0.0
13 20.08 ЮЗ 8 11 км н/о +15.4 +10.0 70 +14 +14 1019.4 1016.1
14 20.08 ЮЗ 7 15 км н/о +16.4 +10.5 68 +15 +15 1019.7 1016.5
15 20.08 ЮЗ 6 25 км н/о +16.7 +9.0 60 +16 +16 1020.0 1016.7
16 20.08 ЮЗ 4 35 км н/о +16.7 +8.7 59 +16 +16 1019.9 1016.7
17 20.08 З 4 25 км н/о +16.8 +9.9 64 +16 +16 1020.0 1016.7
18 20.08 ЮЗ 6 16 км н/о +16.8 +10.5 66 +16 +16 1020.2 1017.0 +17.3 0.0
19 20.08 Ю 5 22 км н/о +16.0 +10.6 70 +15 +15 1020.4 1017.1
20 20.08 ЮВ 3 35 км н/о +14.4 +10.4 77 +14 +14 1020.7 1017.4
21 20.08 Ю 2 24 км н/о +13.5 +10.2 80 +13 +13 1020.8 1017.5
22 20.08 ЮВ 3 35 км в посл. час туман н/о +12.8 +10.4 85 +11 +11 1020.7 1017.4
23 20.08 ЮВ 3 45 км в посл. час туман н/о +12.6 +10.5 87 +11 +11 1020.6 1017.4
00 21.08 Ю 3 50 км н/о +13.0 +10.9 87 +12 +12 1020.6 1017.4
01 21.08 Ю 3 70 км н/о +13.6 +11.4 87 +12 +12 1020.7 1017.5
02 21.08 Ю 3 60 км в посл. час морось н/о +13.8 +11.8 88 +13 +13 1020.6 1017.4
03 21.08 Ю 4 55 км н/о +14.2 +12.3 88 +13 +13 1020.5 1017.3
04 21.08 ЮВ 3 40 км н/о +13.5 +12.1 91 +12 +12 1020.4 1017.1
05 21.08 Ю 3 23 км н/о +13.1 +11.9 92 +12 +12 1020.4 1017.2
06 21.08 Ю 3 28 км н/о +13.4 +11.8 90 +12 +12 1020.4 1017.2 +12.5 0.0
07 21.08 Ю 4 35 км н/о +14.1 +12.0 87 +13 +13 1020.4 1017.2
08 21.08 Ю 6 40 км н/о +15.1 +11.7 80 +13 +13 1020.1 1016.8
09 21.08 Ю 8 40 км н/о +16.4 +11.3 72 +15 +15 1020.1 1016.9
10 21.08 Ю 7
{13}
50 км н/о +16.9 +10.8 67 +16 +16 1019.6 1016.3
11 21.08 Ю 8 50 км н/о +17.3 +10.5 64 +16 +16 1018.8 1015.6
12 21.08 Ю 10
{14}
55 км н/о +18.1 +11.2 64 +17 +17 1018.2 1014.9
13 21.08 Ю 11-16
{16}
40 км н/о +17.5 +10.7 64 +16 +16 1017.8 1014.6
14 21.08 Ю 9
{16}
9000 м слаб. дождь н/о +15.5 +12.9 84 +13 +13 1017.5 1014.3
15 21.08 Ю 7 8000 м слаб. дождь н/о +14.9 +13.1 89 +13 +13 1016.8 1013.6
16 21.08 Ю 10-15
{15}
26 км в посл. час дождь н/о +14.9 +12.3 84 +12 +12 1016.0 1012.8
17 21.08 Ю 8
{16}
3900 м дождь н/о +13.7 +12.5 92 +11 +11 1015.1 1011.8
18 21.08 Ю 10
{16}
29 км в посл. час дождь н/о +14.7 +13.1 90 +12 +12 1014.5 1011.3 +18.4 5
19 21.08 Ю 9
{15}
21 км слаб. дождь н/о +14.9 +13.2 90 +13 +13 1014.5 1011.3
20 21.08 ЮЗ 9
{14}
29 км в посл. час дождь н/о +15.0 +13.1 88 +13 +13 1014.7 1011.4
21 21.08 ЮЗ 7
{14}
16 км н/о +15.0 +13.5 91 +13 +13 1015.1 1011.8
22 21.08 ЮЗ 6 20 км н/о +14.8 +13.4 91 +13 +13 1015.2 1011.9
23 21.08 ЮЗ 6 24 км н/о +14.7 +13.5 93 +13 +13 1015.2 1012.0
00 22.08 ЮЗ 5 30 км н/о +14.0 +12.4 90 +12 +12 1015.3 1012.0 0.0
01 22.08 Ю 4 30 км н/о +13.7 +11.9 89 +12 +12 1014.9 1011.6
02 22.08 Ю 7 29 км н/о +13.6 +12.0 90 +11 +11 1014.9 1011.6
03 22.08 Ю 6 27 км н/о +13.5 +12.0 91 +11 +11 1014.8 1011.5
04 22.08 Ю 5 19 км н/о +13.1 +11.5 90 +11 +11 1014.6 1011.3
05 22.08 Ю 5 30 км н/о +12.8 +11.4 91 +11 +11 1014.4 1011.1
06 22.08 Ю 5 35 км н/о +13.2 +11.3 88 +11 +11 1014.5 1011.3 +12.8 0.0
07 22.08 Ю 6 40 км н/о +14.0 +12.0 88 +12 +12 1014.5 1011.3
08 22.08 ЮЗ 6 40 км н/о +15.3 +11.8 80 +14 +14 1014.6 1011.4
09 22.08 ЮЗ 7 35 км н/о +16.1 +11.3 73 +15 +15 1014.8 1011.5
10 22.08 ЮЗ 9 35 км н/о +17.4 +11.2 67 +16 +16 1014.6 1011.4
11 22.08 ЮЗ 9
{14}
45 км н/о +16.5 +10.7 69 +15 +15 1014.6 1011.4
12 22.08 Ю 7 45 км н/о +16.7 +12.8 78 +15 +15 1014.5 1011.2
13 22.08 ЮЗ 9 50 км н/о +17.0 +13.6 80 +16 +16 1014.2 1011.0
14 22.08 ЮЗ 9
{14}
21 км слаб. морось н/о +16.9 +14.3 85 +15 +15 1014.1 1010.9
15 22.08 ЮЗ 8 11 км морось н/о +17.3 +16.0 92 +16 +16 1013.7 1010.5
16 22.08 Ю 8
{15}
26 км слаб. морось н/о +17.9 +15.5 86 +17 +17 1013.1 1009.9
17 22.08 ЮЗ 10
{14}
40 км в посл. час морось н/о +18.2 +15.5 84 +17 +17 1013.1 1009.9
18 22.08 ЮЗ 12-17
{17}
18 км в посл. час дождь н/о +17.1 +15.8 92 +15 +15 1013.7 1010.4 +18.4 0.2
19 22.08 ЮЗ 8
{16}
14 км в посл. час морось н/о +15.8 +15.0 95 +14 +14 1014.8 1011.5
20 22.08 ЮЗ 6
{14}
14 км н/о +16.2 +14.6 90 +15 +15 1015.6 1012.4
21 22.08 ЮЗ 6 16 км н/о +16.9 +14.0 83 +16 +16 1016.2 1013.0
22 22.08 ЮЗ 8 23 км н/о +17.1 +14.3 84 +16 +16 1016.6 1013.4
23 22.08 ЮЗ 8
{13}
26 км н/о +17.4 +14.1 81 +16 +16 1017.2 1014.0
00 23.08 ЮЗ 9 29 км н/о +17.2 +13.9 81 +16 +16 1017.3 1014.1 0.0
01 23.08 Ю 7
{13}
24 км н/о +16.7 +13.6 82 +16 +16 1017.8 1014.6
02 23.08 ЮЗ 8 28 км н/о +16.5 +13.2 81 +15 +15 1018.0 1014.8
03 23.08 ЮЗ 8 28 км н/о +16.2 +13.3 83 +15 +15 1018.1 1014.9
04 23.08 ЮЗ 8 26 км н/о +16.2 +13.5 84 +15 +15 1018.4 1015.1
05 23.08 ЮЗ 7 28 км н/о +15.7 +13.2 85 +14 +14 1018.7 1015.5
06 23.08 Ю 8 29 км н/о +15.6 +13.0 85 +14 +14 1019.4 1016.1 +15.3 0.0
07 23.08 ЮЗ 8 30 км н/о +16.1 +12.9 81 +14 +14 1019.4 1016.1
08 23.08 ЮЗ 8
{14}
30 км н/о +16.6 +12.7 78 +15 +15 1019.5 1016.2
09 23.08 ЮЗ 9
{13}
35 км н/о +17.9 +12.8 72 +17 +17 1019.6 1016.4
10 23.08 ЮЗ 9 35 км н/о +18.1 +12.8 71 +17 +17 1019.8 1016.6
11 23.08 ЮЗ 6 28 км н/о +18.1 +13.7 75 +18 +18 1019.7 1016.5
12 23.08 З 5 35 км н/о +17.9 +14.1 78 +17 +17 1019.8 1016.6
13 23.08 Ю 9 45 км н/о +19.9 +13.8 68 +21 +21 комфорт 1019.8 1016.6
14 23.08 Ю 8 50 км н/о +19.8 +13.9 69 +21 +21 комфорт 1019.8 1016.6
15 23.08 Ю 6 50 км н/о +19.9 +13.9 68 +22 +22 комфорт 1019.4 1016.3
16 23.08 Ю 7 50 км н/о +19.8 +13.9 69 +21 +21 комфорт 1019.2 1016.0
17 23.08 Ю 7 45 км н/о +20.3 +14.0 67 +22 +22 комфорт 1018.9 1015.7
18 23.08 Ю 7 45 км н/о +18.4 +13.4 73 +18 +18 1018.7 1015.5 +20.6
19 23.08 Ю 7 30 км слаб. дождь н/о +17.3 +13.4 78 +16 +16 1018.8 1015.6
20 23.08 ЮВ 5 40 км в посл. час дождь н/о +16.1 +13.2 83 +15 +15 1018.5 1015.3
21 23.08 ЮВ 3 45 км н/о +16.0 +13.4 85 +15 +15 1018.2 1014.9
22 23.08 ЮЗ 1 35 км н/о +15.6 +12.9 84 +17 +17 1018.2 1015.0
23 23.08 ЮЗ 1 35 км н/о +15.5 +12.8 84 +16 +16 1018.0 1014.8
00 24.08 В 2 50 км н/о +15.7 +12.5 81 +16 +16 1018.0 1014.8 0.0
01 24.08 ЮВ 3 45 км н/о +15.9 +12.2 79 +16 +16 1017.9 1014.7
02 24.08 С 1 35 км н/о +14.8 +12.1 84 +15 +15 1017.9 1014.7
03 24.08 В 2 35 км н/о +14.4 +12.0 85 +14 +14 1017.8 1014.5
04 24.08 ЮВ 2 35 км н/о +15.2 +12.5 84 +15 +15 1017.5 1014.3
05 24.08 Ю 4 30 км н/о +16.1 +13.0 82 +15 +15 1017.2 1014.0
06 24.08 В 1 30 км н/о +15.0 +12.8 87 +16 +16 1017.6 1014.4 +14.3 0.0
07 24.08 В 2 30 км н/о +15.3 +13.0 86 +15 +15 1017.5 1014.2
08 24.08 ЮВ 3 35 км н/о +16.9 +12.7 76 +17 +17 1017.2 1014.0
09 24.08 Ю 3 35 км н/о +18.6 +13.3 71 +19 +19 1017.4 1014.2
10 24.08 Ю 4 13 км в посл. час морось н/о +20.7 +13.1 62 +23 +23 комфорт 1017.3 1014.2
11 24.08 ЮЗ 3 18 км слаб. дождь н/о +21.1 +14.0 64 +24 +24 комфорт 1017.3 1014.1
12 24.08 Ю 6 65 км в посл. час морось н/о +22.5 +11.5 50 +25 +25 комфорт 1016.9 1013.8 0.0
13 24.08 Ю 8 40 км н/о +23.1 +11.7 49 +26 +26 жарко 1017.0 1013.8
14 24.08 Ю 6 24 км н/о +23.4 +12.3 50 +26 +26 жарко 1016.8 1013.7
15 24.08 ЮВ 2 40 км н/о +24.1 +12.9 50 +26 +26 жарко 1016.2 1013.1
16 24.08 З 3 35 км в посл. час дождь н/о +23.1 +12.7 52 +26 +26 жарко 1016.3 1013.2
17 24.08 З 3 35 км н/о +22.4 +11.4 50 +25 +25 комфорт 1016.2 1013.1
18 24.08 С 1 35 км н/о +22.3 +12.1 52 +25 +25 комфорт 1016.3 1013.2 +24.8 0.0
19 24.08 В 2 30 км н/о +19.9 +12.2 61 +22 +22 комфорт 1016.4 1013.2
20 24.08 В 2 35 км н/о +18.2 +9.9 58 +19 +19 1016.8 1013.6
21 24.08 В 2 35 км н/о +17.3 +11.5 69 +18 +18 1016.7 1013.5
22 24.08 В 3 30 км н/о +17.0 +11.6 70 +17 +17 1016.7 1013.5
23 24.08 В 4 35 км н/о +16.9 +11.9 72 +17 +17 1016.7 1013.5
00 25.08 В 3 30 км н/о +16.1 +11.8 76 +16 +16 1016.6 1013.4
01 25.08 В 3 35 км н/о +16.2 +11.8 75 +16 +16 1016.2 1013.0
02 25.08 В 1 22 км н/о +15.5 +11.1 75 +16 +16 1016.2 1013.0
03 25.08 В 1 40 км н/о +15.2 +11.0 76 +16 +16 1016.4 1013.2
04 25.08 СВ 3 30 км н/о +14.8 +11.0 78 +14 +14 1016.4 1013.2
05 25.08 СВ 2 30 км н/о +13.9 +11.0 83 +13 +13 1016.2 1013.0
06 25.08 СВ 3 28 км н/о +14.0 +11.3 84 +13 +13 1016.6 1013.4 +13.6
07 25.08 С 2 35 км н/о +15.7 +12.5 81 +16 +16 1017.0 1013.8
08 25.08 С 2 35 км н/о +18.5 +13.6 73 +20 +20 1017.4 1014.2
09 25.08 СВ 2 40 км н/о +21.8 +14.4 63 +25 +25 комфорт 1017.3 1014.1
10 25.08 СВ 2 35 км н/о +24.2 +15.5 58 +27 +27 жарко 1017.0 1013.8
11 25.08 Ю 2 40 км в посл. час морось н/о +26.2 +14.0 47 +28 +28 жарко 1016.6 1013.5
12 25.08 Ю 5 30 км в посл. час дождь н/о +26.2 +14.9 50 +29 +29 жарко 1016.4 1013.2 0.0
13 25.08 З 2 30 км н/о +24.9 +16.2 58 +28 +28 жарко 1016.6 1013.5
14 25.08 З 4 30 км н/о +23.0 +14.6 59 +27 +27 душно 1016.7 1013.6
15 25.08 З 4 27 км н/о +22.4 +13.9 59 +26 +26 жарко 1016.7 1013.5
16 25.08 З 4 26 км н/о +22.2 +13.8 59 +25 +25 комфорт 1016.6 1013.5
17 25.08 З 3 21 км н/о +21.7 +13.6 60 +24 +24 комфорт 1016.5 1013.4
18 25.08 З 3 23 км н/о +20.2 +14.1 68 +23 +23 комфорт 1016.8 1013.6 +27.0 0.0
19 25.08 З 6 13 км н/о +17.7 +15.1 85 +17 +17 1017.3 1014.1

 

Местоположение метеостанции Прествик (Великобритания): широта 55.52 долгота -4.58 высота над уровнем моря 27 м.

В архиве по умолчанию представлена погода в Прествике за последнюю неделю. Архивные данные за месяц целиком и за предыдущие месяцы, начиная с января 2011 года, Вы можете получить, выбрав интересующий диапазон дат из раскрывающегося списка и нажав кнопку "Ввод!".


*Определитесь, кто Вы:
робот инопланетянин человек

Внимание! Время в таблицах - всемирное. Для получения местного времени необходимо прибавить поправку, которая равна 0 ч.

Смотрите также архив погоды в соседних городах и на ближайших метеорологических станциях:

Погода в Глазго (Великобритания) (42 км)
Погода в Друмалбине (Великобритания) (55 км)
Погода в Макрайханише (Великобритания) (71 км)
Погода в Аэропорту West Freugh (Великобритания) (78 км)
Погода в Дандреннане (Великобритания) (88 км)
Погода в Эдинбурге (Великобритания) (90 км)
Погода в Эскдейлмьюире (Великобритания) (90 км)
Погода в Гленогле (Великобритания) (101 км)
Погода в Страталлане (Великобритания) (104 км)
Погода в Порт-Эллене (Великобритания) (106 км)

Пояснения к столбцам:

Ветер - указаны скорость ветра в м/с - средняя за 10 мин, порывы в срок и между сроками (в фигурных скобках) и направление, откуда дует ветер: С - северный, СВ - северо-восточный, В - восточный, ЮВ - юго-восточный, Ю - южный, ЮЗ - юго-западный, З - западный, СЗ - северо-западный.
Видимость - горизонтальная дальность видимости в метрах или километрах. При видимости от 1 до 10 км при отсутствии осадков обычно наблюдается дымка, при ухудшении видимости до 1 км и менее - туман. В сухую погоду видимость может ухудшаться дымом, пылью или мглою.
Явления - указаны атмосферные явления, наблюдавшиеся в срок или в последний час перед сроком; фигурными скобками обозначены явления, наблюдавшиеся между сроками (за 1-3 часа до срока); квадратными скобками обозначены град или гололедные отложения с указанием их диаметра в мм.
Облачность - указаны через наклонную черту общая и нижняя облачность в баллах и высота нижней границы облаков в метрах; квадратными скобками обозначены формы облаков: Ci - перистые, Cs - перисто-слоистые, Cc - перисто-кучевые, Ac - высококучевые, As - высокослоистые, Sc - слоисто-кучевые, Ns - слоисто-дождевые, Cu - кучевые, Cb - кучево-дождевые. Подробнее классификацию облаков см. в Атласе облаков (PDF).
T - Температура воздуха - температура, измеренная на высоте 2 м над землей.
Td - Температура точки росы - температура, при понижении до которой содержащийся в воздухе водяной пар достигнет насыщения.
f - Относительная влажность воздуха - влажноcть воздуха, измеренная на высоте 2 м над землей.
Te - Эффективная температура - температура, которую ощущает одетый по сезону человек в тени. Характеристика душности погоды. При расчете учитывается влияние влажности воздуха и скорости ветра на теплоощущения человека.
Tes - Эффективная температура на солнце - температура, которую ощущает человек, с поправкой на солнечный нагрев. Характеристика знойности погоды. Зависит от высоты солнца над горизонтом, облачности и скорости ветра. Ночью, в пасмурную погоду, а также при ветре 12 м/с и более поправка равна нулю.
P - Атмосферное давление - приведенное к уровню моря атмосферное давление.
Po - Атмосферное давление - измеренное на уровне метеостанции атмосферное давление.
Tmin - Минимальная температура - минимум температуры воздуха на высоте 2 м над землей.
Tmax - Максимальная температура - максимум температуры воздуха на высоте 2 м над землей.
R - Количество осадков - Количество выпавших осадков за период времени, мм. При наведении курсора мыши на число - период времени, за который выпало указанное количество осадков.
R24 - Количество осадков - Количество выпавших осадков за 24 часа, мм.
S - Снежный покров - Высота снежного покрова, см. При наведении курсора мыши на число - состояние снежного покрова и степень покрытия местности в баллах.